Location: Unspecified
(0.0000°N, 0.0000°E)
Time: 10:44:16
(UTC+00:00)

USA 72 - Pass Details

Date: 12 October 2024
Orbit: 2595 x 11651 km, 63.4° (Epoch: 25 October)

Event Time Altitude Azimuth Distance (km) Brightness Sun altitude
Rises 03:52:29 0° 188° (S) 6,866 9.4 -28.2°
Reaches altitude 10° 03:56:01 10° 182° (S) 6,178 9.2 -27.4°
Maximum altitude 04:14:56 55° 103° (ESE) 5,730 9.1 -22.7°
Drops below altitude 10° 05:02:43 10° 30° (NNE) 13,938 11.2 -10.8°
Sets 05:17:54 0° 27° (NNE) 15,993 11.5 -7.1°
